LEMUR-2-LIU-POU-CHUN (43054 NORAD) Tracking and Keplerian Element Data

This shows tracking and keplerian element data for the satellite.

Feedback or suggestion? Click here.




ElementValue
Catalog43054
NameLEMUR-2-LIU-POU-CHUN
Epoch Orbit21372
Epoch Day261.80181205
Epoch Year2021
RAAN294.4258
Inclination51.6315
Eccentricity0.0001959
Argument of Perigee43.4876
Mean Anonmoly316.6271
Mean Motion15.60132412
Decay Rate0.00021356
L11 43054U 17071T 21261.80181205 .00021356 00000-0 26332-3 0 9995
L22 43054 51.6315 294.4258 0001959 43.4876 316.6271 15.60132412213725

Live tracking and technical data element details for LEMUR-2-LIU-POU-CHUN (NORAD 43054). LEMUR-2-LIU-POU-CHUN can be tracked NOW for your location showing map with azimuth and elevation plus other details from your city location.

Track the satellite on the map from your city or location and see movement details for azimuth, elevation, latitude, longitude, range, height, and movement on the map or in text.







IsCatalogInMostPopularTable: catalog: 43054, numindb: 544
Update: records affected: 1



GetName: 43054 LEMUR-2-LIU-POU-CHUN

Hit Count: updated at: Sat, 25 Sep 2021 23:32:28 GMT